Retour au catalogue

COSMOS 2114

ActifMilitairePO
NORAD 21028·PAYLOAD·🇷🇺 Russia

Lancé Dec 22, 1990 depuis Plesetsk Cosmodrome

Loading…

Prochains Passages (prochaines 24 heures)

TLE

FraisSource: Space-Track

Époque: Sep 14, 2026, 04:22 UTC

1 21028U 90114A   26257.18199187  .00000027  00000-0  92541-4 0  9998
2 21028  82.5818 176.8853 0006323  87.1180  76.8405 12.62805111646625

Suivez COSMOS 2114 en temps réel avec AllMySat

Download on the App Store